Regional Weather Roundup
Issued by NWS Wakefield, VA

Home | Current Version | Previous Version | Graphics & Text | Print | Product List | Glossary On
Versions: 1 2 3 4 5 6 7 8 9 10 11 12 13 14 15 16 17 18 19 20 21 22 23 24 25 26 27 28 29 30 31 32 33 34 35 36 37 38 39 40 41 42 43 44 45 46 47 48 49 50
000
ASUS41 KAKQ 041815
RWRAKQ

REGIONAL WEATHER ROUNDUP
NATIONAL WEATHER SERVICE WAKEFIELD VA
100 PM EST SUN DEC 04 2016

Note: "fair" indicates few or no clouds below 12,000 feet with no
significant weather and/or obstructions to visibility. * = Denotes
station may not report precipitation (e.g., rain,snow,etc.),
thunder or fog.

VAZ042-051-052>054-056-041900-
NORTHERN VIRGINIA

CITY           SKY/WX    TMP DP  RH WIND       PRES   REMARKS
WASH NATIONAL  CLOUDY    46  30  53 SE3       30.25F
DULLES         CLOUDY    44  26  49 CALM      30.25F
FORT BELVOIR   CLOUDY    47  27  46 CALM      30.25F
QUANTICO       CLOUDY    45  31  58 S3        30.27F
FREDERICKSBRG* CLOUDY    45  32  59 CALM      30.25F
STAFFORD*      CLOUDY    44  30  58 CALM      30.29F
WARRENTON      CLOUDY    45  23  41 CALM      30.25S
CULPEPER*      CLOUDY    45  30  55 CALM      30.25F
MANASSAS*      SUNNY     45  30  57 CALM      30.25F
LEESBURG*      CLOUDY    45  32  61 CALM      30.25F
WINCHESTER     CLOUDY    37  28  70 S3        30.22F
FRONT ROYAL*   FAIR      39  28  65 CALM      30.21F
LURAY*         FAIR      39  32  75 S3        30.22F
$$

VAZ048-049-060>072-079>083-041900-
CENTRAL AND SOUTH CENTRAL VIRGINIA

CITY           SKY/WX    TMP DP  RH WIND       PRES   REMARKS
RICHMOND       CLOUDY    43  28  56 CALM      30.25F
CHESTERFIELD*  FAIR      43  19  39 CALM      30.27F
PETERSBURG*    CLOUDY    42  29  61 NW3       30.27F
HANOVER        CLOUDY    43  28  55 CALM      30.27F
TAPPAHANNOCK*  CLOUDY    44  28  53 CALM      30.26F
QUINTON*       FAIR      42  30  62 MISG      30.26F
CHARLOTTSVILLE CLOUDY    45  30  55 VRB5      30.23F
GORDONSVILLE*  FAIR      44  29  54 SW3       30.24F
ORANGE*          N/A     45  28  53 CALM      30.26F
LOUISA*        MOSUNNY   46  34  61 CALM      30.24S
BUMPASS*       FAIR      43  30  61 CALM      30.25F
FARMVILLE*     CLOUDY    44  32  63 CALM      30.25S
CREWE*         CLOUDY    42  30  62 CALM      30.25F
FORT PICKETT*  CLOUDY    41  24  51 CALM      30.25F
CHASE CITY*    CLOUDY    43  29  56 CALM      30.25F
CLARKSVILLE*   CLOUDY    43  32  65 CALM      30.24F
SOUTH HILL*    CLOUDY    44  32  62 CALM      30.30F
LAWRENCEVILLE* CLOUDY    44  30  59 CALM      30.25F
EMPORIA*       CLOUDY    45  32  61 CALM      30.27F
$$

VAZ088>098-041900-
SOUTHEAST VIRGINIA

CITY           SKY/WX    TMP DP  RH WIND       PRES   REMARKS
NORFOLK        CLOUDY    46  36  68 CALM      30.25F
VIRGINIA BEACH CLOUDY    47  37  68 N8        30.24F
NORFOLK NAVAL  CLOUDY    47  35  63 CALM      30.26F
WEST POINT*    CLOUDY    43  32  64 W3        30.27F
SALUDA*        FAIR      43  34  69 CALM      30.25F
NEWPORT NEWS   CLOUDY    45  32  60 VRB3      30.25F
LANGLEY AFB    CLOUDY    46  33  62 CALM      30.24F
FORT EUSTIS    CLOUDY    46  33  61 W5        30.23F
WILLIAMSBURG*  CLOUDY    46  34  61 CALM      30.26F
HR EXEC AP*    FAIR      46  32  57 CALM      30.24F
FRANKLIN*      CLOUDY    46  32  58 CALM      30.26F
US460-WAKEFLD  CLOUDY    43  33  68 CALM      30.26F
$$

VAZ020-022-025-037-045-041900-
WEST CENTRAL AND SOUTHWEST VIRGINIA

CITY           SKY/WX    TMP DP  RH WIND       PRES   REMARKS
STAUNTON*      CLOUDY    37  29  70 S5        30.23F
WAYNESBORO*    CLOUDY    38  27  64 SW6       30.21F
HOT SPRINGS VA NOT AVBL
LYNCHBURG      CLOUDY    41  28  60 CALM      30.24F
DANVILLE       CLOUDY    42  32  67 CALM      30.25F
SOUTH BOSTON*  CLOUDY    43  29  57 NE5       30.24F
MARTINSVILLE   DRIZZLE   40  31  71 CALM      30.25F
ROANOKE        LGT RAIN  39  30  70 E6        30.22F
BLACKSBURG     LGT RAIN  35  32  88 E7        30.19F
DUBLIN*        MIX PCPN  37  34  90 E7        30.16F
MARION*        CLOUDY    37  36  96 E8        30.14F
HILLSVILLE*    MIX PCPN  36  36  99 CALM      30.12F
RICHLANDS*     CLOUDY    42  40  93 SE7       30.05F
WISE*          LGT RAIN  41  41 100 S9        30.05F
ABINGDON*      DRIZZLE   42  41  93 E8        30.09F
$$

MDZ021>025-VAZ099-100-041900-
SOUTHERN MARYLAND AND THE DELMARVA PENINSULA

CITY           SKY/WX    TMP DP  RH WIND       PRES   REMARKS
PATUXENT RIVER CLOUDY    47  31  53 CALM      30.24F
BAY BRIDGE APT CLOUDY    45  28  53 NE6       30.24F
LEONARDTOWN    CLOUDY    45  30  57 CALM      30.25F
DOVER          CLOUDY    47  31  52 W8        30.21S
GEORGETOWN     CLOUDY    48  29  47 CALM      30.22F
EASTON         SUNNY     48  28  46 W5        30.26F
CAMBRIDGE      CLOUDY    45  30  57 NW6       30.23F
SALISBURY      CLOUDY    47  30  51 NW6       30.22F
OCEAN CITY     CLOUDY    47  31  53 NW5       30.22F
WALLOPS ISLAND CLOUDY    45  31  58 N5        30.24F
ACCOMACK*      CLOUDY    46  35  65 NW3       30.23F
$$

NCZ012>017-030>032-041900-
NORTH CENTRAL AND EASTERN NORTH CAROLINA

CITY           SKY/WX    TMP DP  RH WIND       PRES   REMARKS
ROANOKE RAPIDS CLOUDY    45  32  61 CALM      30.25F
RALEIGH        CLOUDY    46  33  60 S3        30.24F
ELIZABETH CITY CLOUDY    49  37  63 N5        30.25F
AHOSKIE*       CLOUDY    45  33  63 N3        30.27S
EDENTON*       CLOUDY    50  39  66 CALM      30.25F
CURRITUCK*     CLOUDY    48  36  62 CALM      30.25F
KILL DEVIL HLS CLOUDY    50  41  70 N6        30.23S
MANTEO         CLOUDY    49  40  69 NW7       30.24F
CAPE HATTERAS  CLOUDY    52  40  63 VRB6      30.23F
TARBORO*       NOT AVBL
GOLDSBORO      CLOUDY    47  40  77 CALM      30.23F
WASHINGTON     CLOUDY    49  37  61 CALM      30.25F
GREENVILLE     MOSUNNY   48  36  61 CALM      30.26F
NEW BERN       LGT RAIN  50  38  63 CALM      30.26S
WILMINGTON     CLOUDY    47  40  76 N7        30.22F
$$

VAZ048-041900-
ELSEWHERE

CITY           SKY/WX    TMP DP  RH WIND       PRES   REMARKS
HARRISBURG PA  CLOUDY    45  28  51 NW8       30.21F
BALTIMORE      CLOUDY    46  29  51 W8        30.23F
ANNAPOLIS      CLOUDY    48  31  51 N6        30.23F
ANDREWS AFB    CLOUDY    46  27  48 W3        30.23F
PHILADELPHIA   PTSUNNY   47  24  40 NW10      30.22F
HENDERSON NC   CLOUDY    42  29  59 CALM      30.24F
GREENSBORO     LGT RAIN  42  37  82 CALM      30.21F
ROCKY MOUNT    CLOUDY    47  34  60 CALM      30.25F
$$

VAZ100-041900-
MARINE

STATION/POSITION TIME  TEMP    WIND        PRES    WAVE   SWELL
                       AIR SEA DIR/SP/G            HT/PER HT/PER
                 (UTC) (F)     (DEG/KT/KT) (MB)    (FT/S) (FT/S)
BRANDYWINE LGT   1724   44     360/ 10/ 11   N/A
CAPE MAY NJ      1730   46 47  300/  6/  8 1023.1F
LEWES DE         1730   45 48  340/  8/ 10 1023.5F
OCEAN-CITY-INLET 1730   45 50  340/  2/  4 1024.0F
WACHAPREAGUE VA  1730   46 49  290/  1/  4 1024.2S
THOMAS POINT MD  1800   44 48   50/  4/  5   N/A
GOOSES REEF MD   1740   45      40/  6/  8 1024.8F
COVE POINT MD    1730   43     360/  5/  6 1024.6F
SOLOMONS ISLAND  1730   45 51  280/  4/  5   N/A
BISHOPS HEAD MD  1730   45 44   30/  4/  4 1024.1F
PINEY POINT MD   1730          330/  5/  6   N/A
POTOMAC MD       1740   44     300/  4/  6 1023.3F
CAMBRIDGE MD     1730   45 47  310/  4/  7 1023.2F
LEWISETTA VA     1730   43 48  350/  4/  5 1024.0F
RAPPAHANNOCK LGT 1730           20/  5/  6 1024.7F
STINGRAY PT      1740   43     330/  4/  6 1024.6F
YORK RVR RNG VA  1730   44     310/  4/  5 1024.1F
YORKTOWN VA      1730   43 52  280/  3/  4 1024.3F
JAMESTOWN VA     1740   42     280/  4/  6   N/A
DOMINION TERM VA 1730   44     320/  5/  6 1024.5F
KIPTOPEKE VA     1730      50  330/  8/  9   N/A
CHES BAY BRIDGE  1730   45 53  330/  6/  9 1024.4S
CAPE HENRY VA    1730   46     310/  5/  6   N/A
WILLOUBY STN VA  1730   44     270/  2/  4 1025.3F
S CRANEY ISL VA  1730   45     310/  4/  5 1024.5F
CAPE HENRY BUOY  1742      56                N/A     3/ 6
1ST LANDING BUOY 1740   46                 1024.4F
CAPE CHARLES BUO 1726      56                N/A     3/ 5
OFFSHORE WE BUOY 1721      57                N/A     3/ 7
64NM E OF VA BCH 1750   49 60  350/  8/ 12 1023.2F   4/ 7   3/ 7
DUCK PIER NC     1730   49 55  360/  4/  6 1023.5F
44100 DUCK FRF   1735      57                N/A     4/ 8
OREGON INLET NC  1730   51 54   20/  4/  7 1023.6F
HATTERAS NC      1730   50 55   10/  9/ 12 1023.2F
DIAMOND SHLS NC  1750   55 75   10/ 10/ 14 1023.1F   5/ 8   5/ 8
CAPE LOOKOUT NC  1800   50      10/  8/ 10 1023.1F
$$



USA.gov is the U.S. government's official web portal to all federal, state and local government web resources and services.